Location: *
(45.8589°N, 4.7139°E)
Time: 17:58:14
(UTC+00:00)

STARLINK-1224 - Pass Details

Date: 09 April 2020
Orbit: 549 x 551 km, 53.0° (Epoch: 03 June)

Event Time Altitude Azimuth Distance (km) Brightness Sun altitude
Rises 20:47:48 0° 300° (WNW) 2,726 8.5 -23.5°
Reaches altitude 10° 20:50:03 10° 298° (WNW) 1,829 7.3 -23.8°
Enters shadow 20:53:41 61° 259° (W) 628 3.9 -24.3°
